Location: Burzi?i
(45.0869°N, 16.0577°E)
Time: 04:38:23
(UTC+00:00)

Cosmos 2151 - Pass Details

Date: 29 October 2020
Orbit: 580 x 601 km, 82.5° (Epoch: 01 December)

Event Time Altitude Azimuth Distance (km) Brightness Sun altitude
Rises 17:32:56 0° 358° (N) 2,818 6.5 -19.1°
Reaches altitude 10° 17:35:16 10° 6° (N) 1,911 5.5 -19.5°
Enters shadow 17:37:27 26° 26° (NNE) 1,165 4.2 -19.9°
